TimeEST,TemperatureF,Dew PointF,Humidity,Sea Level PressureIn,VisibilityMPH,Wind Direction,Wind SpeedMPH,Gust SpeedMPH,PrecipitationIn,Events,Conditions,WindDirDegrees,DateUTC
12:53 AM,35.1,30.9,85,30.32,-9999.0,Calm,Calm,-,N/A,,Unknown,0,2013-01-23 05:53:00
1:53 AM,35.1,30.0,82,30.33,-9999.0,Calm,Calm,-,N/A,,Unknown,0,2013-01-23 06:53:00
2:53 AM,33.1,30.0,89,30.33,-9999.0,Calm,Calm,-,N/A,,Unknown,0,2013-01-23 07:53:00
3:53 AM,32.0,28.0,85,30.33,-9999.0,Calm,Calm,-,N/A,,Unknown,0,2013-01-23 08:53:00
4:53 AM,32.0,28.9,88,30.33,-9999.0,Calm,Calm,-,N/A,,Unknown,0,2013-01-23 09:53:00
5:53 AM,30.9,27.0,85,30.34,-9999.0,Calm,Calm,-,N/A,,Unknown,0,2013-01-23 10:53:00
6:53 AM,30.0,27.0,88,30.36,-9999.0,Calm,Calm,-,N/A,,Unknown,0,2013-01-23 11:53:00
7:53 AM,30.0,26.1,85,30.38,-9999.0,Calm,Calm,-,N/A,,Unknown,0,2013-01-23 12:53:00
8:53 AM,39.9,32.0,73,30.41,-9999.0,Calm,Calm,-,N/A,,Unknown,0,2013-01-23 13:53:00
9:53 AM,50.0,28.9,44,30.43,-9999.0,NE,8.1,-,N/A,,Unknown,40,2013-01-23 14:53:00
10:53 AM,55.0,28.0,35,30.43,-9999.0,Variable,5.8,-,N/A,,Unknown,0,2013-01-23 15:53:00
11:53 AM,60.1,28.9,31,30.40,-9999.0,NNE,10.4,-,N/A,,Unknown,20,2013-01-23 16:53:00
12:53 PM,62.1,30.0,30,30.37,-9999.0,NE,8.1,-,N/A,,Unknown,40,2013-01-23 17:53:00
1:53 PM,64.0,33.1,31,30.33,-9999.0,NNW,6.9,-,N/A,,Unknown,340,2013-01-23 18:53:00
2:53 PM,66.0,35.1,32,30.31,-9999.0,NNE,6.9,-,N/A,,Unknown,20,2013-01-23 19:53:00
3:53 PM,66.9,36.0,32,30.31,-9999.0,Variable,5.8,-,N/A,,Unknown,0,2013-01-23 20:53:00
4:53 PM,64.9,36.0,34,30.31,-9999.0,NNE,3.5,-,N/A,,Unknown,20,2013-01-23 21:53:00
5:53 PM,59.0,41.0,51,30.31,-9999.0,Calm,Calm,-,N/A,,Unknown,0,2013-01-23 22:53:00
6:53 PM,55.0,42.1,62,30.32,-9999.0,West,5.8,-,N/A,,Unknown,280,2013-01-23 23:53:00
7:53 PM,52.0,42.1,69,30.32,-9999.0,Calm,Calm,-,N/A,,Unknown,0,2013-01-24 00:53:00
8:53 PM,46.0,39.9,79,30.32,-9999.0,Calm,Calm,-,N/A,,Unknown,0,2013-01-24 01:53:00
9:53 PM,41.0,37.9,89,30.33,-9999.0,Calm,Calm,-,N/A,,Unknown,0,2013-01-24 02:53:00
10:53 PM,41.0,37.9,89,30.33,-9999.0,Calm,Calm,-,N/A,,Unknown,0,2013-01-24 03:53:00
11:53 PM,39.0,36.0,89,30.32,-9999.0,Calm,Calm,-,N/A,,Unknown,0,2013-01-24 04:53:00